Regional Weather Roundup
Issued by NWS

Home | Current Version | Previous Version | Graphics & Text | Print | Product List | Glossary On
Versions: 1 2 3 4 5 6 7 8 9 10 11 12 13 14 15 16 17 18 19 20 21 22 23 24 25 26 27 28
000
ASUS45 KTFX 290210
RWRMT
MONTANA REGIONAL WEATHER ROUNDUP
NATIONAL WEATHER SERVICE GREAT FALLS MT
800 PM MDT THU APR 28 2016

NOTE: "FAIR" INDICATES FEW OR NO CLOUDS BELOW 12000 FEET WITH NO
SIGNIFICANT WEATHER AND/OR OBSTRUCTIONS TO VISIBILITY.

MTZ001>007-043-290300-
WEST OF THE DIVIDE

CITY           SKY/WX    TMP DP  RH WIND       PRES   REMARKS
KALISPELL      MOCLDY    49  29  46 NE9       30.02F
MISSOULA       CLOUDY    49  28  44 SE9       30.00F
BUTTE          CLOUDY    34  31  88 W3        29.98S
MULLAN PASS    LGT SNOW  33  31  92 CALM      29.97F FOG
ANACONDA         N/A     37  30  75 NW3       29.99S
DEER LODGE       N/A     41  28  60 NE10      30.01S
EUREKA           N/A     54  30  40 E6        30.02
HAMILTON         N/A     43  34  70 N12       29.99R
LIBBY            N/A     54  28  37 E3        30.01S
PLAINS           N/A     51  32  48 N3        30.01F
$$

MTZ008-052>055-290300-
SOUTHWEST MONTANA

CITY           SKY/WX    TMP DP  RH WIND       PRES   REMARKS
BOZEMAN        CLOUDY    40  27  59 E10       29.99S
DILLON         CLOUDY    40  26  57 NE18      29.95S
ENNIS          CLOUDY    37  28  70 N20       29.99S WCI  27
THREE FORKS      N/A     42  34  73 SE2       30.00R
TWIN BRIDGES     N/A     40  26  57 S16       29.94F
$$

MTZ009-010-012-014-046-048-049-054-290300-
EAST SLOPES AND CENTRAL MONTANA

CITY           SKY/WX    TMP DP  RH WIND       PRES   REMARKS
CUT BANK       CLOUDY    42  34  73 SW3       30.07F
GREAT FALLS    CLOUDY    40  32  73 E8        30.06S
HELENA         CLOUDY    43  33  68 N8        30.01S
CHOTEAU          N/A     37  36  93 N3        30.08F
$$

MTZ011-013-016-021-045-047-050-051-290300-
NORTH CENTRAL MONTANA

CITY           SKY/WX    TMP DP  RH WIND       PRES   REMARKS
HAVRE          MOCLDY    49  34  56 SE8       30.09S
LEWISTOWN      CLOUDY    38  31  76 E12       30.08F WCI  30
N BAR RANCH    CLOUDY    34  32  93 NE3       30.11S
CHINOOK          N/A     48  36  61 SE5       30.10S
$$

MTZ017>020-022>027-061-062-290300-
NORTHEAST MONTANA

CITY           SKY/WX    TMP DP  RH WIND       PRES   REMARKS
GLASGOW        CLOUDY    48  31  51 S6        30.12R
JORDAN           N/A     43  34  70 S13       30.12R
SIDNEY         CLOUDY    48  30  49 CALM      30.15R
WOLF POINT     CLOUDY    53  28  38 SE7       30.13S
PLENTYWOOD       N/A     52  18  25 E9        30.14S
POPLAR           N/A     52  27  37 SE3       30.14S
SCOBEY           N/A     52  19  27 E10       30.12R
$$

MTZ028>42-056>058-290300-
SOUTHCENTRAL AND SOUTHEAST MONTANA

CITY           SKY/WX    TMP DP  RH WIND       PRES   REMARKS
BAKER          CLOUDY    40  33  76 S7        30.14R
BILLINGS       PTCLDY    38  35  89 NE6       30.08S
LIVINGSTON     CLOUDY    37  27  67 E17       30.03R WCI  27
MILES CITY     CLOUDY    43  34  70 SE8       30.13R
EKALAKA          N/A     36  31  82 E9        30.08S WCI  29
FORSYTH          N/A     43  37  81 E6        30.12S
LAUREL           N/A     39  26  60 CALM      30.06S
ROUNDUP          N/A     38  33  82 CALM      30.01R
$$

REGIONAL REPORTS...DAKOTAS

CITY           SKY/WX    TMP DP  RH WIND       PRES   REMARKS
WILLISTON      CLOUDY    52  19  27 SE8       30.15R
MINOT          CLOUDY    49  22  34 N6        30.14S
DICKINSON      CLOUDY    46  27  47 NE9       30.10R
BEACH          CLOUDY    43  37  81 SW3       30.16R
CROSBY         MOCLDY    48  14  25 E10       30.18R
TIOGA          CLOUDY    46  18  31 SE8       30.20R
WATFORD CITY   MOCLDY    48  23  37 E6        30.15R
BISMARCK       CLOUDY    50  29  44 NE7       30.13R
GRAND FORKS    PTCLDY    50  28  42 NE5       30.13S
FARGO          CLOUDY    53  25  33 N9        30.09R
BUFFALO SD       N/A     38  34  85 SW5       30.06S
RAPID CITY     CLOUDY    37  34  89 NE6       30.12R
$$

REGIONAL REPORTS...WYOMING/IDAHO/WASHINGTON

CITY           SKY/WX    TMP DP  RH WIND       PRES   REMARKS
GILLETTE       CLOUDY    36  33  89 N3        30.07S
SHERIDAN       CLOUDY    37  33  85 S7        30.08S WCI  32
BUFFALO WY       N/A    N/A N/A N/A MISG      30.08R
CODY           CLOUDY    36  28  75 N8        30.03S WCI  29
YELLOWSTONE LA   N/A     33  24  69 CALM      29.93R
IDAHO FALLS    CLOUDY    53  28  38 N14       29.83R
SALMON         CLOUDY    45  36  70 E8        29.93S
BOISE          CLEAR     62  30  29 NW20G30   29.81R
SPOKANE        MOCLDY    60  31  33 E12       29.92F
$$

REGIONAL REPORTS...ALBERTA

CITY           SKY/WX    TMP DP  RH WIND       PRES   REMARKS
EDMONTON       PTCLDY    57  30  35 SE14G22   30.01F
CALGARY        MOCLDY    46  28  49 S21G28    30.05F
LETHBRIDGE     MOCLDY    50  36  57 CALM      30.07F
MEDICINE HAT   MOCLDY    54  30  40 E8        30.09S
WATERTON GATE    N/A     41  30  65 NE3         N/A
MILK RIVER       N/A     46  36  66 SW2         N/A
$$

REGIONAL REPORTS...SASKATCHEWAN

CITY           SKY/WX    TMP DP  RH WIND       PRES   REMARKS
SWIFT CURRENT  MOCLDY    52  21  30 SE9       30.12S
REGINA         CLOUDY    55  18  22 E15       30.17S
SASKATOON      MOCLDY    55  23  28 E13       30.19S
CYPRESS HILLS    N/A     43  27  52 SE5         N/A
VAL MARIE        N/A     48  27  43 SE9         N/A
ROCKGLEN         N/A     48  18  29 SE9         N/A
$$




USA.gov is the U.S. government's official web portal to all federal, state and local government web resources and services.